AIC8801 VAAH-VQPR

Flight info

Callsign AIC8801
Flight time N/A
Altitude 35000
Route BODAR1A BODAR G590 BPL W68 BOBET G590 BBN W44 PPT Q18 BGD G348 SUBSU SUBSU1
Aircraft B77W/H-SDE1E2E3FGHIJ2J3J4J5M1RWXY/LB1D1

Departure

Time 2026-05-08 23:06
Airport Sardar Vallabh Patel International Airport (VAAH)

Arrival

Time N/A
Airport Paro International Airport (VQPR)
Time Latitude Longitude Altitude Speed Heading
2026-05-08 21:22 23.07373 72.62466 191 ft 0 kts 315°
2026-05-08 22:53 23.07363 72.62476 195 ft 3 kts 316°
2026-05-08 22:54 23.07346 72.62494 206 ft 3 kts 316°
2026-05-08 22:54 23.07331 72.62510 206 ft 3 kts 294°
2026-05-08 22:54 23.07330 72.62526 206 ft 3 kts 220°
2026-05-08 22:54 23.07349 72.62541 206 ft 3 kts 218°
2026-05-08 22:55 23.07360 72.62551 206 ft 1 kts 226°
2026-05-08 22:55 23.07361 72.62552 206 ft 0 kts 226°
2026-05-08 23:00 23.07355 72.62545 191 ft 3 kts 226°
2026-05-08 23:00 23.07335 72.62523 207 ft 6 kts 226°
2026-05-08 23:00 23.07301 72.62488 202 ft 7 kts 212°
2026-05-08 23:00 23.07253 72.62494 201 ft 7 kts 146°
2026-05-08 23:01 23.07217 72.62532 207 ft 7 kts 136°
2026-05-08 23:01 23.07181 72.62570 205 ft 7 kts 136°
2026-05-08 23:01 23.07136 72.62567 206 ft 8 kts 219°
2026-05-08 23:01 23.07092 72.62524 204 ft 11 kts 223°
2026-05-08 23:02 23.07026 72.62454 208 ft 14 kts 224°
2026-05-08 23:02 23.06956 72.62380 208 ft 14 kts 224°
2026-05-08 23:02 23.06888 72.62303 207 ft 14 kts 226°
2026-05-08 23:02 23.06818 72.62229 208 ft 14 kts 224°
2026-05-08 23:03 23.06758 72.62164 211 ft 8 kts 226°
2026-05-08 23:03 23.06708 72.62145 208 ft 8 kts 163°
2026-05-08 23:03 23.06691 72.62156 201 ft 0 kts 142°
2026-05-08 23:04 23.06690 72.62157 201 ft 2 kts 141°
2026-05-08 23:04 23.06665 72.62180 212 ft 6 kts 136°
2026-05-08 23:04 23.06638 72.62212 210 ft 6 kts 132°
2026-05-08 23:05 23.06624 72.62251 201 ft 6 kts 86°
2026-05-08 23:05 23.06644 72.62288 210 ft 6 kts 51°
2026-05-08 23:05 23.06677 72.62325 212 ft 14 kts 45°
2026-05-08 23:05 23.06858 72.62522 212 ft 69 kts 44°
2026-05-08 23:06 23.07377 72.63075 212 ft 138 kts 44°
2026-05-08 23:06 23.08198 72.63958 210 ft 191 kts 44°
2026-05-08 23:06 23.09201 72.65072 459 ft 208 kts 45°
2026-05-08 23:06 23.10168 72.66210 1144 ft 204 kts 48°
2026-05-08 23:07 23.10688 72.67681 1584 ft 222 kts 85°
2026-05-08 23:07 23.10377 72.69347 2043 ft 231 kts 115°
2026-05-08 23:07 23.09441 72.70763 2483 ft 232 kts 136°
2026-05-08 23:07 23.08283 72.71987 3016 ft 231 kts 137°
2026-05-08 23:08 23.07135 72.73192 3558 ft 231 kts 137°
2026-05-08 23:08 23.05836 72.74350 3744 ft 252 kts 144°
2026-05-08 23:08 23.04357 72.75504 4052 ft 268 kts 145°
2026-05-08 23:08 23.02839 72.76681 4505 ft 276 kts 139°
2026-05-08 23:09 23.01571 72.78286 4876 ft 284 kts 126°
2026-05-08 23:09 23.00320 72.79970 5463 ft 286 kts 127°
2026-05-08 23:09 22.99486 72.81916 5952 ft 289 kts 98°
2026-05-08 23:09 22.99158 72.84062 6528 ft 290 kts 101°
2026-05-08 23:10 22.98700 72.86181 7312 ft 285 kts 104°
2026-05-08 23:10 22.98211 72.88247 8163 ft 281 kts 104°
2026-05-08 23:10 22.97720 72.90307 8841 ft 283 kts 104°
2026-05-08 23:10 22.97226 72.92385 9512 ft 285 kts 104°
2026-05-08 23:11 22.96732 72.94473 10123 ft 289 kts 104°
2026-05-08 23:11 22.96218 72.96652 10346 ft 310 kts 104°
2026-05-08 23:11 22.95667 72.98996 10518 ft 332 kts 104°
2026-05-08 23:11 22.95078 73.01504 10689 ft 353 kts 104°
2026-05-08 23:12 22.94461 73.04128 11143 ft 364 kts 104°
2026-05-08 23:12 22.93828 73.06820 11741 ft 372 kts 104°
2026-05-08 23:12 22.93186 73.09548 12571 ft 375 kts 104°
2026-05-08 23:12 22.90979 73.18402 14791 ft 392 kts 106°
2026-05-08 23:13 22.87552 73.29985 17473 ft 413 kts 105°
2026-05-08 23:13 22.84011 73.42166 19719 ft 437 kts 105°
2026-05-08 23:13 22.80246 73.55083 21672 ft 461 kts 104°
2026-05-08 23:13 22.76330 73.68465 23463 ft 483 kts 104°
2026-05-08 23:14 22.72174 73.82613 25006 ft 498 kts 104°
2026-05-08 23:14 22.67927 73.97022 26668 ft 507 kts 104°
2026-05-08 23:14 22.63562 74.11784 28019 ft 522 kts 104°
2026-05-08 23:14 22.60503 74.26984 29421 ft 512 kts 79°
2026-05-08 23:15 22.61961 74.42498 30460 ft 523 kts 79°
2026-05-08 23:15 22.63104 74.58212 31737 ft 523 kts 81°
2026-05-08 23:15 22.64188 74.73905 33044 ft 522 kts 81°
2026-05-08 23:15 22.64673 74.80878 33646 ft 522 kts 81°
2026-05-08 23:16 22.64945 74.84801 33925 ft 522 kts 81°
2026-05-08 23:16 22.65215 74.88715 34155 ft 522 kts 81°
2026-05-08 23:16 22.65485 74.92640 34375 ft 522 kts 82°
2026-05-08 23:16 22.65752 74.96554 34589 ft 521 kts 82°
2026-05-08 23:17 22.66019 75.00472 34779 ft 521 kts 82°
2026-05-08 23:17 22.66401 75.06114 34877 ft 522 kts 82°
2026-05-08 23:17 22.68169 75.32594 34906 ft 521 kts 82°
2026-05-08 23:18 22.70205 75.63914 34914 ft 521 kts 82°
2026-05-08 23:18 22.71711 75.78652 34945 ft 513 kts 71°
2026-05-08 23:18 22.76293 75.92156 34923 ft 507 kts 62°
2026-05-08 23:19 22.86906 76.20617 34890 ft 511 kts 62°
2026-05-08 23:19 22.97446 76.49265 34901 ft 513 kts 63°
2026-05-08 23:20 23.08024 76.78203 34891 ft 517 kts 63°
2026-05-08 23:20 23.18650 77.07358 34880 ft 520 kts 63°
2026-05-08 23:21 23.22892 77.18903 34911 ft 522 kts 62°
2026-05-08 23:21 23.25570 77.26221 34893 ft 522 kts 62°
2026-05-08 23:22 23.28361 77.33455 34884 ft 517 kts 57°
2026-05-08 23:22 23.32046 77.40076 34888 ft 509 kts 50°
2026-05-08 23:23 23.36006 77.46457 34881 ft 509 kts 49°
2026-05-08 23:23 23.39948 77.52869 34878 ft 509 kts 50°
2026-05-08 23:24 23.43858 77.59305 34891 ft 510 kts 50°
2026-05-08 23:24 23.47766 77.65768 34875 ft 512 kts 50°
2026-05-08 23:25 23.51685 77.72255 34867 ft 514 kts 50°
2026-05-08 23:25 23.55620 77.78775 34860 ft 515 kts 50°
2026-05-08 23:26 23.59561 77.85311 34882 ft 516 kts 50°
2026-05-08 23:26 23.63482 77.91823 34854 ft 516 kts 50°
2026-05-08 23:27 23.67420 77.98372 34858 ft 517 kts 51°
2026-05-08 23:27 23.71361 78.04933 34854 ft 517 kts 51°
2026-05-08 23:28 23.75305 78.11508 34841 ft 518 kts 51°
2026-05-08 23:28 23.79250 78.18096 34842 ft 518 kts 51°
2026-05-08 23:29 23.83190 78.24682 34841 ft 518 kts 51°
2026-05-08 23:29 23.87134 78.31283 34843 ft 518 kts 51°
2026-05-08 23:30 23.91070 78.37880 34842 ft 519 kts 51°
2026-05-08 23:30 23.95009 78.44493 34869 ft 519 kts 51°
2026-05-08 23:31 23.98945 78.51107 34845 ft 519 kts 51°
2026-05-08 23:31 24.02866 78.57719 34836 ft 518 kts 52°
2026-05-08 23:32 24.06752 78.64336 34833 ft 517 kts 52°
2026-05-08 23:32 24.10629 78.70958 34812 ft 516 kts 52°
2026-05-08 23:33 24.14508 78.77583 34833 ft 518 kts 52°
2026-05-08 23:33 24.18401 78.84237 34829 ft 519 kts 52°
2026-05-08 23:34 24.22277 78.90871 34827 ft 521 kts 52°
2026-05-08 23:34 24.26192 78.97581 34818 ft 523 kts 52°
2026-05-08 23:35 24.30104 79.04298 34827 ft 523 kts 52°
2026-05-08 23:35 24.34024 79.11036 34825 ft 524 kts 53°
2026-05-08 23:36 24.37938 79.17773 34805 ft 523 kts 53°
2026-05-08 23:36 24.41848 79.24513 34808 ft 523 kts 53°
2026-05-08 23:37 24.45743 79.31237 34805 ft 522 kts 53°
2026-05-08 23:37 24.49633 79.37959 34803 ft 521 kts 53°
2026-05-08 23:38 24.56845 79.50449 34791 ft 522 kts 53°
2026-05-08 23:38 24.72368 79.77445 34802 ft 522 kts 54°
2026-05-08 23:39 24.83882 80.06885 34746 ft 534 kts 75°
2026-05-08 23:39 24.90882 80.38701 34810 ft 536 kts 74°
2026-05-08 23:40 24.97941 80.70735 34821 ft 538 kts 75°
2026-05-08 23:40 25.05022 81.02899 34797 ft 540 kts 75°
2026-05-08 23:41 25.12188 81.35081 34789 ft 541 kts 75°
2026-05-08 23:41 25.19496 81.67282 34812 ft 541 kts 75°
2026-05-08 23:42 25.26778 81.99324 34823 ft 542 kts 75°
2026-05-08 23:42 25.34013 82.31693 34813 ft 544 kts 76°
2026-05-08 23:43 25.40873 82.64340 34825 ft 545 kts 76°
2026-05-08 23:43 25.45969 82.92010 34855 ft 545 kts 86°
2026-05-08 23:44 25.47451 83.15227 34845 ft 548 kts 86°
2026-05-08 23:44 25.49770 83.48927 34879 ft 550 kts 86°
2026-05-08 23:45 25.50648 83.62039 34855 ft 550 kts 87°
2026-05-08 23:45 25.52832 83.95590 34874 ft 550 kts 88°
2026-05-08 23:46 25.54782 84.29469 34838 ft 551 kts 88°
2026-05-08 23:46 25.56668 84.63351 34858 ft 551 kts 88°
2026-05-08 23:47 25.58478 84.97291 34886 ft 552 kts 89°
2026-05-08 23:47 25.62455 85.27273 34906 ft 554 kts 78°
2026-05-08 23:48 25.68764 85.60849 34862 ft 556 kts 79°
2026-05-08 23:48 25.74963 85.94476 34873 ft 557 kts 79°
2026-05-08 23:49 25.81100 86.28226 34854 ft 558 kts 80°
2026-05-08 23:49 25.87192 86.62039 34862 ft 559 kts 80°
2026-05-08 23:50 25.93234 86.95951 34878 ft 560 kts 81°
2026-05-08 23:50 25.99154 87.29941 34894 ft 561 kts 81°
2026-05-08 23:51 26.04988 87.64056 34889 ft 562 kts 81°
2026-05-08 23:51 26.09782 87.90116 34841 ft 564 kts 65°
2026-05-08 23:52 26.11761 87.93858 34902 ft 561 kts 50°
2026-05-08 23:52 26.14402 87.97019 34890 ft 555 kts 35°
2026-05-08 23:52 26.17569 87.99394 34886 ft 543 kts 23°
2026-05-08 23:52 26.20884 88.01405 34899 ft 545 kts 23°
2026-05-08 23:53 26.27535 88.05556 34901 ft 551 kts 25°
2026-05-08 23:53 26.34184 88.09871 34877 ft 554 kts 25°
2026-05-08 23:54 26.40758 88.14194 34810 ft 546 kts 25°
2026-05-08 23:54 26.43989 88.16320 34538 ft 538 kts 25°
2026-05-08 23:55 26.50357 88.20496 34100 ft 526 kts 24°
2026-05-08 23:55 26.53497 88.22551 33850 ft 522 kts 24°
2026-05-08 23:55 26.56621 88.24597 33623 ft 518 kts 25°
2026-05-08 23:55 26.59714 88.26626 33348 ft 514 kts 25°
2026-05-08 23:56 26.62788 88.28645 32880 ft 511 kts 26°
2026-05-08 23:56 26.65757 88.30786 32425 ft 511 kts 34°
2026-05-08 23:56 26.68439 88.33392 31981 ft 511 kts 43°
2026-05-08 23:56 26.70812 88.36331 31549 ft 508 kts 50°
2026-05-08 23:57 26.72818 88.39573 31118 ft 505 kts 58°
2026-05-08 23:57 26.74629 88.42929 30703 ft 502 kts 59°
2026-05-08 23:57 26.76380 88.46230 30248 ft 499 kts 60°
2026-05-08 23:57 26.78156 88.49569 29733 ft 497 kts 59°
2026-05-08 23:58 26.79930 88.52870 29238 ft 494 kts 59°
2026-05-08 23:58 26.81708 88.56149 28726 ft 490 kts 59°
2026-05-08 23:58 26.83478 88.59393 28265 ft 486 kts 59°
2026-05-08 23:58 26.85237 88.62609 27809 ft 482 kts 58°
2026-05-08 23:59 26.86981 88.65797 27389 ft 478 kts 58°
2026-05-08 23:59 26.88711 88.68964 26911 ft 475 kts 58°
2026-05-08 23:59 26.90428 88.72112 26460 ft 471 kts 58°
2026-05-08 23:59 26.92130 88.75235 25993 ft 468 kts 58°
2026-05-09 00:00 26.93817 88.78335 25540 ft 464 kts 58°
2026-05-09 00:00 26.95490 88.81412 25083 ft 461 kts 58°
2026-05-09 00:00 26.97155 88.84473 24603 ft 459 kts 58°
2026-05-09 00:00 26.98808 88.87530 24175 ft 456 kts 58°
2026-05-09 00:01 27.00385 88.90609 23719 ft 454 kts 59°
2026-05-09 00:01 27.01904 88.93680 23466 ft 445 kts 60°
2026-05-09 00:01 27.03381 88.96692 23260 ft 435 kts 60°
2026-05-09 00:01 27.04826 88.99626 23057 ft 426 kts 60°
2026-05-09 00:02 27.06251 89.02504 22867 ft 417 kts 59°
2026-05-09 00:02 27.07648 89.05312 22694 ft 407 kts 59°
2026-05-09 00:02 27.09016 89.08058 22518 ft 399 kts 59°
2026-05-09 00:02 27.10365 89.10765 22094 ft 395 kts 59°
2026-05-09 00:03 27.11699 89.13443 21745 ft 391 kts 59°
2026-05-09 00:03 27.13022 89.16100 21340 ft 389 kts 60°
2026-05-09 00:03 27.14339 89.18750 20944 ft 388 kts 60°
2026-05-09 00:03 27.15635 89.21362 20559 ft 377 kts 60°
2026-05-09 00:04 27.16946 89.23831 20399 ft 359 kts 53°
2026-05-09 00:04 27.18537 89.25889 20265 ft 341 kts 40°
2026-05-09 00:04 27.20395 89.27437 20047 ft 325 kts 27°
2026-05-09 00:04 27.22380 89.28465 19974 ft 311 kts 17°
2026-05-09 00:05 27.24386 89.29108 19883 ft 289 kts
2026-05-09 00:05 27.26297 89.29460 19752 ft 270 kts
2026-05-09 00:05 27.28113 89.29808 19466 ft 260 kts
2026-05-09 00:05 27.29874 89.30154 18991 ft 256 kts
2026-05-09 00:06 27.31632 89.30498 18419 ft 256 kts
2026-05-09 00:06 27.33395 89.30713 17820 ft 253 kts 357°
2026-05-09 00:06 27.35104 89.30415 17225 ft 247 kts 340°
2026-05-09 00:06 27.36638 89.29607 16641 ft 242 kts 325°
2026-05-09 00:07 27.38006 89.28532 16156 ft 236 kts 325°
2026-05-09 00:07 27.39349 89.27526 15872 ft 231 kts 326°
2026-05-09 00:07 27.40702 89.26529 15591 ft 234 kts 328°
2026-05-09 00:07 27.42187 89.25745 15294 ft 240 kts 346°
2026-05-09 00:08 27.43853 89.25624 14914 ft 242 kts
2026-05-09 00:08 27.45439 89.26175 14624 ft 236 kts 29°
2026-05-09 00:08 27.46724 89.27227 14341 ft 221 kts 46°
2026-05-09 00:08 27.47650 89.28533 14094 ft 210 kts 58°
2026-05-09 00:09 27.48189 89.29985 13489 ft 199 kts 78°
2026-05-09 00:09 27.48281 89.31459 12967 ft 186 kts 92°
2026-05-09 00:09 27.48088 89.32887 12537 ft 186 kts 105°
2026-05-09 00:09 27.47584 89.34236 12074 ft 189 kts 120°
2026-05-09 00:10 27.46768 89.35382 11747 ft 190 kts 135°
2026-05-09 00:10 27.45708 89.36301 11249 ft 193 kts 148°
2026-05-09 00:10 27.44624 89.37154 10768 ft 189 kts 133°
2026-05-09 00:10 27.43963 89.38398 10295 ft 185 kts 108°
2026-05-09 00:11 27.43626 89.39723 10310 ft 172 kts 111°
2026-05-09 00:11 27.43001 89.40926 10111 ft 190 kts 131°
2026-05-09 00:11 27.41785 89.41752 8207 ft 236 kts 169°
2026-05-09 00:11 27.40307 89.42508 7400 ft 227 kts 154°
2026-05-09 00:12 27.39059 89.43292 7673 ft 188 kts 154°
2026-05-09 00:12 27.37962 89.43905 8322 ft 162 kts 154°
2026-05-09 00:12 27.36990 89.44426 9118 ft 154 kts 156°
2026-05-09 00:12 27.35946 89.44884 9621 ft 169 kts 157°
2026-05-09 00:13 27.34876 89.45583 10091 ft 184 kts 142°